Weather Roundup
Issued by NWS Chicago, IL

Home | Current Version | Previous Version | Graphics & Text | Print | Product List | Glossary On
Versions: 1 2 3 4 5 6 7 8 9 10 11 12 13 14 15 16 17 18 19 20 21 22 23 24 25 26 27 28 29 30 31 32 33 34 35 36 37 38 39 40 41 42 43 44 45 46 47 48 49 50
000
NZUS59 KLOT 250206
HRRLOT

CHICAGO AREA WEATHER ROUNDUP
NATIONAL WEATHER SERVICE CHICAGO/ROMEOVILLE IL
800 PM CST WED DEC 24 2014

NOTE: "FAIR" INDICATES FEW OR NO CLOUDS BELOW 12,000 FEET WITH NO
SIGNIFICANT WEATHER AND/OR OBSTRUCTIONS TO VISIBILITY.

* THESE STATIONS ARE NOT UNDER NWS QUALITY CONTROL. THEY ALSO MAY NOT
  REPORT WEATHER SUCH AS PRECIPITATION OR FOG.

ILZ005-006-012>014-019>023-250300-
NORTHEAST ILLINOIS

CITY           SKY/WX    TMP DP  RH WIND       PRES   REMARKS
OHARE          DRIZZLE   36  32  85 W14       29.54R
MIDWAY         CLOUDY    38  34  85 W10       29.56R
AURORA         CLOUDY    36  32  85 W16       29.59R
LANSING*       DRIZZLE   36  33  90 W14G20    29.57R
JOLIET*        CLOUDY    35  33  92 W7        29.59S WCI  29
WAUKEGAN       CLOUDY    36  32  85 W8        29.52R
DUPAGE AIRPORT CLOUDY    36  32  85 W10       29.56R
WHEELING       LGT RAIN  37  33  85 W9        29.56R
KANKAKEE*      CLOUDY    36  34  93 W15       29.61R
MORRIS*        CLOUDY    36  35  96 W12       29.60R
LEWIS AIRPORT* CLOUDY    35  34  98 W12       29.58S WCI  27
NORTHERLY IS     N/A     37  33  85 W7          N/A
$$

WIZ051-052-058>065-066-070>072-250300-
SOUTHEAST WISCONSIN

CITY           SKY/WX    TMP DP  RH WIND       PRES   REMARKS
MILWAUKEE      LGT RAIN  36  32  85 W10       29.51S
KENOSHA*       CLOUDY    36  33  89 W12       29.52R
RACINE*        CLOUDY    37  33  85 W9        29.52S
BURLINGTON     CLOUDY    33  32  94 W12       29.54R WCI  25
WAUKESHA       CLOUDY    34  32  93 W12G20    29.52S WCI  25
WEST BEND      CLOUDY    34  32  93 W7        29.50R WCI  28
$$

INZ001>003-010>013-019-020-250300-
NORTHWEST INDIANA

CITY           SKY/WX    TMP DP  RH WIND       PRES   REMARKS
GARY*          CLOUDY    37  32  81 W16       29.57R
MICHIGAN CITY* NOT AVBL
RENSSELAER*    NOT AVBL
VALPARAISO     CLOUDY    36  34  92 W15       29.57R
$$

LMZ740>746-250300-
SOUTHERN LAKE MICHIGAN

STATION/POSITION TIME  SKY/WX   TEMP WIND        PRES    VSBY
                                AIR  DIR/SP/G
                 (UTC)          (F)  (DEG/KT/KT) (MB)    (MI)
HARRISON CRIB    0200            37  270/ 13/ 15   N/A
BURNHAM HARBOR   0200            37  270/  7/ 16   N/A
CALUMET HARBOR   0200            37  240/  7/ 13 1000.0R
BURNS HARBOR     NOT AVBL
MICHIGAN CITY    0200            37  220/ 20/ 22   N/A
$$

ABBREVIATIONS USED IN REMARKS
   TC - TEMPERATURE IN CELSIUS
  WCI - WIND CHILL INDEX
   HX - HEAT INDEX
  VSB - VISIBILITY
$$



USA.gov is the U.S. government's official web portal to all federal, state and local government web resources and services.